Flight Track Log - Related Links

Times and Time Zones

All times are in EST time to prevent confusion due to time zone crossing. See the N70JB flight status page for this flight to view local times or setup timezone preferences in your user account.

Time Position Orientation Groundspeed Altitude Reporting Facility
EST Latitude Longitude Course Direction KTS MPH feet Rate Location/Type
Sun 09:18:26 PM 33.7667 -84.5667 270° West 121 139 2,400  Level Atlanta TRACON
Sun 09:19:32 PM 33.7667 -84.6167 270° West 135 155 3,000 286 Climbing Atlanta TRACON
Sun 09:20:32 PM 33.7167 -84.6333 195° South 161 185 3,000 50 Level Atlanta TRACON
Sun 09:21:32 PM 33.6833 -84.6500 203° Southwest 163 188 3,100  Climbing Atlanta TRACON
Sun 09:22:32 PM 33.6333 -84.6667 196° South 164 189 3,000 -50 Descending Atlanta TRACON
Sun 09:23:32 PM 33.6000 -84.6833 203° Southwest 176 203 3,000 50 Level Atlanta TRACON
Sun 09:24:32 PM 33.5500 -84.6667 164° South 174 200 3,100 53 Climbing Atlanta TRACON
Sun 09:25:26 PM 33.5000 -84.6500 164° South 180 207 3,100 316 Level Atlanta TRACON
Sun 09:26:26 PM 33.4667 -84.6167 140° Southeast 171 197 3,700 762 Climbing Atlanta TRACON
Sun 09:27:32 PM 33.4333 -84.5667 129° Southeast 164 189 4,700 762 Climbing Atlanta TRACON
Sun 09:28:32 PM 33.4000 -84.5167 129° Southeast 182 209 5,300 684 Climbing Atlanta TRACON
Sun 09:29:26 PM 33.3667 -84.4833 140° Southeast 186 214 6,000 421 Climbing Atlanta TRACON
Sun 09:30:26 PM 33.3333 -84.4333 129° Southeast 196 226 6,100 50 Climbing Atlanta TRACON
Sun 09:31:26 PM 33.3000 -84.3833 129° Southeast 203 234 6,100 190 Level Atlanta TRACON
Sun 09:32:32 PM 33.2500 -84.3333 140° Southeast 208 239 6,500 429 Climbing Atlanta TRACON
Sun 09:33:32 PM 33.2000 -84.2833 140° Southeast 212 244 7,000 300 Climbing Atlanta TRACON
Sun 09:34:32 PM 33.1667 -84.2333 129° Southeast 216 249 7,100 53 Climbing Atlanta TRACON
Sun 09:35:26 PM 33.1333 -84.1833 129° Southeast 220 253 7,100  Level Atlanta TRACON
Sun 09:36:38 PM 33.0833 -84.1167 132° Southeast 225 259 7,100  Level Atlanta TRACON
Sun 09:37:38 PM 33.0500 -84.0500 121° Southeast 226 260 7,100  Level Atlanta TRACON
Sun 09:38:44 PM 33.0000 -83.9833 132° Southeast 228 262 7,100  Level Atlanta TRACON
Sun 09:39:38 PM 32.9667 -83.9333 128° Southeast 228 262 7,100  Level Atlanta TRACON
Sun 09:40:38 PM 32.9333 -83.8833 128° Southeast 226 260 7,100  Level Atlanta TRACON
Sun 09:41:44 PM 32.8833 -83.8167 132° Southeast 226 260 7,100  Level Atlanta TRACON
Sun 09:42:44 PM 32.8333 -83.7667 140° Southeast 228 262 7,100  Level Atlanta TRACON
Sun 09:43:38 PM 32.8000 -83.7167 128° Southeast 228 262 7,100  Level Atlanta TRACON
Sun 09:44:32 PM 32.7667 -83.6667 128° Southeast 230 265 7,100  Level Atlanta TRACON
Sun 09:45:32 PM 32.7333 -83.6000 121° Southeast 242 278 7,100  Level Atlanta TRACON
Sun 09:46:26 PM 32.6833 -83.5500 140° Southeast 228 262 7,100  Level Atlanta TRACON
Sun 09:47:26 PM 32.6500 -83.4833 121° Southeast 229 264 7,100  Level Atlanta TRACON
Sun 09:48:32 PM 32.6000 -83.4167 132° Southeast 228 262 7,100  Level Atlanta TRACON
Sun 09:50:22 PM 32.5353 -83.3264 130° Southeast 239 275 7,100  Level Jacksonville Center
Sun 09:51:23 PM 32.4958 -83.2694 129° Southeast 239 275 7,100  Level Jacksonville Center
Sun 09:52:22 PM 32.4522 -83.2103 131° Southeast 233 268 7,100  Level Jacksonville Center
Sun 09:53:22 PM 32.4125 -83.1533 130° Southeast 233 268 7,100  Level Jacksonville Center
Sun 09:54:22 PM 32.3711 -83.0919 129° Southeast 233 268 7,100  Level Jacksonville Center
Sun 09:55:22 PM 32.3314 -83.0353 130° Southeast 233 268 7,100  Level Jacksonville Center
Sun 09:56:22 PM 32.2897 -82.9761 130° Southeast 233 268 7,100  Level Jacksonville Center
Sun 09:57:23 PM 32.2522 -82.9197 128° Southeast 233 268 7,100  Level Jacksonville Center
Sun 09:58:22 PM 32.2125 -82.8656 131° Southeast 233 268 7,100  Level Jacksonville Center
Sun 09:59:22 PM 32.1706 -82.8092 131° Southeast 228 262 7,100  Level Jacksonville Center
Sun 10:00:23 PM 32.1308 -82.7528 130° Southeast 222 255 7,100  Level Jacksonville Center
Sun 10:01:23 PM 32.0933 -82.6964 128° Southeast 222 255 7,100  Level Jacksonville Center
Sun 10:02:23 PM 32.0514 -82.6353 129° Southeast 222 255 7,100  Level Jacksonville Center
Sun 10:03:23 PM 32.0094 -82.5814 133° Southeast 227 261 7,100  Level Jacksonville Center
Sun 10:04:22 PM 31.9719 -82.5253 128° Southeast 222 255 7,100  Level Jacksonville Center
Sun 10:05:22 PM 31.9319 -82.4692 130° Southeast 217 250 7,100  Level Jacksonville Center
Sun 10:06:22 PM 31.8900 -82.4131 131° Southeast 217 250 7,100  Level Jacksonville Center
Sun 10:07:22 PM 31.8564 -82.3544 124° Southeast 217 250 7,100  Level Jacksonville Center
Sun 10:08:23 PM 31.8164 -82.2961 129° Southeast 227 261 7,100  Level Jacksonville Center
Sun 10:09:22 PM 31.7806 -82.2375 126° Southeast 227 261 7,100  Level Jacksonville Center
Sun 10:10:23 PM 31.7469 -82.1792 124° Southeast 222 255 7,100 -99 Level Jacksonville Center
Sun 10:11:23 PM 31.7111 -82.1258 128° Southeast 222 255 6,900 -403 Descending Jacksonville Center
Sun 10:12:22 PM 31.6711 -82.0578 125° Southeast 227 261 6,300 -605 Descending Jacksonville Center
Sun 10:13:22 PM 31.6289 -81.9994 130° Southeast 232 267 5,700 -545 Descending Jacksonville Center
Sun 10:14:23 PM 31.5931 -81.9389 125° Southeast 225 259 5,200 -400 Descending Jacksonville Center
Sun 10:15:22 PM 31.5633 -81.8856 123° Southeast 225 259 4,900 -353 Descending Jacksonville Center
Sun 10:16:22 PM 31.5275 -81.8322 128° Southeast 220 253 4,500 -400 Descending Jacksonville Center
Sun 10:17:22 PM 31.4933 -81.7694 123° Southeast 210 242 4,100 -397 Descending Jacksonville Center
Sun 10:18:23 PM 31.4594 -81.7161 127° Southeast 205 236 3,700 -400 Descending Jacksonville Center
Sun 10:19:22 PM 31.4278 -81.6681 128° Southeast 205 236 3,300 -303 Descending Jacksonville Center
Sun 10:20:22 PM 31.3958 -81.6147 125° Southeast 200 230 3,100 -250 Descending Jacksonville Center
Sun 10:21:22 PM 31.3597 -81.5569 126° Southeast 200 230 2,800 -300 Descending Jacksonville Center
Sun 10:22:22 PM 31.3281 -81.5086 127° Southeast 194 223 2,500 -300 Descending Jacksonville Center

Login

Don't have an account? Register now (free) for customized features, flight alerts, and more!